[[{"header":{"parameterUnit":"m.s-1","parameterCategory":1,"la1":30.2991,"la2":30.254,"lo1":-89.0895,"lo2":-89.0444,"dy":0.0017,"dx":0.0017,"nx":28,"ny":28,"refTime":"2023-09-04T03:00:00:Z","depth":0,"parameterNumber":2,"parameterNumberName":"U-component_of_WINDS"},"data":[0,0,0,0,0,0,0,0,0,0,0,0,0,0,0,0,0,0,0,0,0,0,0,0,0,0,0,0,0,0,0,0,0,0,0,0,0,0,0,0,0,0,0,0,0,0,0,0,0,0,0,0,0,0,0,0,0,0,-4.2713,-4.2714,0,-4.2783,-4.2783,-4.2784,-4.2699,-4.2695,-4.2692,-4.2689,-4.2759,-4.2764,-4.2769,0,0,0,0,0,0,0,0,0,0,0,0,0,-4.2506,-4.2511,-4.2713,-4.2714,-4.2715,-4.2782,-4.2783,-4.2784,-4.2699,-4.2695,-4.2691,-4.2688,-4.2758,-4.2763,-4.2769,0,0,0,0,0,0,0,0,0,0,0,0,0,-4.2588,-4.2512,-4.2713,-4.268,-4.2678,-4.2782,-4.2783,-4.2785,-4.27,-4.2695,-4.269,-4.2686,-4.2756,-4.2763,-4.277,-4.2909,0,0,-4.2792,-4.2795,0,0,0,0,0,0,0,0,-4.2584,-4.2596,-4.2684,-4.2683,-4.2681,-4.2727,-4.2736,-4.2826,-4.2701,-4.2692,-4.2689,-4.2684,-4.2752,-4.276,-4.2783,-4.2912,-4.2915,-4.2793,-4.2797,-4.28,-4.2802,0,0,0,0,0,0,0,-4.2578,-4.2592,-4.274,-4.2686,-4.2684,-4.2662,-4.2669,-4.2753,-4.2748,-4.2692,-4.2686,-4.2696,-4.275,-4.2776,-4.2784,-4.2916,-4.2792,-4.2799,-4.2803,-4.2806,-4.3163,-4.3167,0,0,0,0,0,0,-4.2576,-4.2588,-4.2738,-4.2743,-4.262,-4.267,-4.2677,-4.2717,-4.2746,-4.2746,-4.2699,-4.2691,-4.2766,-4.2776,-4.2786,-4.295,-4.28,-4.2807,-4.2811,-4.3157,-4.3164,-4.3169,0,0,0,0,0,0,-4.2572,-4.259,-4.2735,-4.2664,-4.2681,-4.2679,-4.2724,-4.2721,-4.2746,-4.2752,-4.2751,-4.2727,-4.2763,-4.2776,-4.2879,-4.2951,-4.281,-4.2817,-4.3151,-4.3159,-4.3167,-4.3279,0,0,0,0,0,0,-4.2567,-4.259,-4.2642,-4.2666,-4.2685,-4.2828,-4.2728,-4.2726,-4.2759,-4.2749,-4.2777,-4.2777,-4.276,-4.2869,-4.2886,-4.2958,-4.2822,-4.3145,-4.3155,-4.3164,-4.3269,-4.3289,-4.3307,0,0,0,0,0,-4.256,-4.2671,-4.2645,-4.2664,-4.2751,-4.2832,-4.2843,-4.2821,-4.2765,-4.2818,-4.2822,-4.2776,-4.2941,-4.288,-4.2899,-4.2974,-4.314,-4.3152,-4.3163,-4.326,-4.3285,-4.3307,0,0,0,0,0,0,-4.2655,-4.2673,-4.2645,-4.2767,-4.2799,-4.2817,-4.2883,-4.2849,-4.2896,-4.2885,-4.2856,-4.2863,-4.2972,-4.2984,-4.2916,-4.311,-4.3031,-4.3047,-4.3098,-4.3122,-4.3141,-4.3135,-4.2828,0,0,0,0,0,-4.2691,-4.2756,-4.2768,-4.2875,-4.2892,-4.2886,-4.292,-4.2901,-4.2932,-4.2944,-4.2956,-4.2988,-4.3046,-4.3085,-4.314,-4.3271,-4.3275,-4.3332,-4.3351,-4.3367,-4.3381,-4.345,-4.3475,-4.3207,-4.3207,-4.3207,0,0,-4.2765,-4.2783,-4.2825,-4.2894,-4.2916,-4.2984,-4.2897,-4.2972,-4.3021,-4.2956,-4.3053,-4.3063,-4.3097,-4.3214,-4.3267,-4.3227,-4.3456,-4.3382,-4.3395,-4.3399,-4.3465,-4.349,-4.3513,-4.3215,-4.3214,-4.3213,0,0,-4.2933,-4.2954,-4.3044,-4.3069,-4.3103,-4.3098,-4.3121,-4.3145,-4.3149,-4.3247,-4.3199,-4.3257,-4.3359,-4.3385,-4.3412,-4.3592,-4.3551,-4.361,-4.371,-4.3779,-4.38,-4.3818,-4.3881,-4.3904,-4.3624,-4.3624,-4.3625,0,-4.302,-4.3119,-4.3095,-4.3174,-4.3205,-4.315,-4.3242,-4.3267,-4.3318,-4.3341,-4.3296,-4.3423,-4.3442,-4.3564,-4.3609,-4.3632,-4.3656,-4.3606,-4.3799,-4.3817,-4.3834,-4.3894,-4.3918,-4.3631,-4.3631,-4.363,-4.3629,0,-4.3224,-4.3294,-4.3363,-4.3414,-4.3454,-4.3539,-4.3527,-4.3571,-4.3549,-4.3549,-4.3649,-4.367,-4.3728,-4.3756,-4.3735,-4.3876,-4.385,-4.3803,-4.3723,-4.3867,-4.3922,-4.3945,-4.3641,-4.3639,-4.3637,-4.3635,0,0,-4.3452,-4.349,-4.3515,-4.3538,-4.3573,-4.3626,-4.3709,-4.3766,-4.3803,-4.3841,-4.3908,-4.3997,-4.3954,-4.3984,-4.3966,-4.4026,-4.4166,-4.3971,-4.3971,-4.4005,-4.4321,-4.4355,-4.4382,-4.414,-4.4145,-4.4148,-4.4318,0,-4.3619,-4.3762,-4.3743,-4.388,-4.3944,-4.3894,-4.3965,-4.3995,-4.3998,-4.4052,-4.4055,-4.4118,-4.4056,-4.4074,-4.4132,-4.4137,-4.4229,-4.4124,-4.4202,-4.4205,-4.4193,-4.4411,-4.4447,-4.4607,-4.434,-4.4343,-4.4346,0,-4.3833,-4.3878,-4.4022,-4.4047,-4.4073,-4.4138,-4.4189,-4.4242,-4.4274,-4.4272,-4.4307,-4.4278,-4.4361,-4.4281,-4.4394,-4.4324,-4.4355,-4.4362,-4.4368,-4.4373,-4.4283,-4.442,-4.4657,-4.468,-4.438,-4.4378,-4.4375,0,-4.3983,-4.4081,-4.4179,-4.42,-4.4232,-4.4279,-4.4294,-4.4322,-4.4358,-4.4403,-4.4425,-4.4479,-4.4508,-4.455,-4.4537,-4.448,-4.4653,-4.4572,-4.4652,-4.4653,-4.4689,-4.4687,-4.4932,-4.4713,-4.4712,-4.4712,-4.4711,0,-4.4171,-4.426,-4.4246,-4.4307,-4.4405,-4.4384,-4.4482,-4.4491,-4.4517,-4.4578,-4.4538,-4.4596,-4.4576,-4.4633,-4.4624,-4.4718,-4.4732,-4.4732,-4.4728,-4.4735,-4.4735,-4.4753,-4.4741,-4.4718,-4.4717,-4.4716,-4.4715,0,-4.4354,-4.4349,-4.4452,-4.4475,-4.4483,-4.4555,-4.4574,-4.463,-4.4631,-4.4708,-4.4725,-4.4726,-4.4791,-4.4783,-4.4855,-4.4849,-4.4966,-4.495,-4.4955,-4.4951,-4.5031,-4.5023,-4.5296,-4.533,-4.509,-4.5092,-4.5094,0,-4.4473,-4.4541,-4.4571,-4.4609,-4.4628,-4.469,-4.4726,-4.4709,-4.4748,-4.479,-4.4842,-4.4904,-4.4952,-4.5059,-4.5065,-4.5121,-4.5104,-4.5196,-4.5112,-4.5116,-4.5104,-4.5099,-4.5105,-4.5212,-4.5215,-4.5217,-4.5219,0,-4.4685,-4.4679,-4.4732,-4.4786,-4.483,-4.4871,-4.4908,-4.4942,-4.4928,-4.4974,-4.504,-4.5078,-4.5153,-4.5214,-4.5267,-4.5282,-4.5249,-4.5245,-4.5267,-4.5273,-4.5273,-4.5273,-4.4998,-4.5239,-4.5237,-4.5235,-4.5234,-4.5233,-4.4838,-4.4896,-4.4926,-4.4987,-4.5014,-4.5049,-4.5103,-4.5111,-4.5166,-4.5225,-4.5212,-4.5287,-4.5318,-4.5385,-4.5407,-4.5465,-4.5431,-4.5462,-4.547,-4.5478,-4.5486,-4.5265,-4.5475,-4.5474,-4.5474,-4.5473,-4.5473,0,-4.5046,-4.5064,-4.512,-4.5173,-4.5222,-4.5187,-4.5226,-4.5269,-4.5335,-4.5367,-4.5416,-4.5493,-4.5553,-4.5565,-4.5622,-4.5666,-4.5652,-4.5682,-4.5677,-4.5681,-4.5514,-4.5489,-4.5692,-4.5692,-4.5692,-4.5692,-4.5692,-4.5692,-4.516,-4.5255,-4.5253,-4.5361,-4.5378,-4.5451,-4.5477,-4.5509,-4.5535,-4.5622,-4.5672,-4.568,-4.5704,-4.5763,-4.5816,-4.5818,-4.584,-4.5876,-4.5872,-4.5715,-4.5693,-4.5672,-4.5648,-4.5882,-4.5882,-4.6034,-4.6035,-4.6037]},{"header":{"parameterUnit":"m.s-1","parameterCategory":1,"la1":30.2991,"la2":30.254,"lo1":-89.0895,"lo2":-89.0444,"dy":0.0017,"dx":0.0017,"nx":28,"ny":28,"refTime":"2023-09-04T03:00:00:Z","depth":0,"parameterNumber":3,"parameterNumberName":"V-component_of_WINDS"},"data":[0,0,0,0,0,0,0,0,0,0,0,0,0,0,0,0,0,0,0,0,0,0,0,0,0,0,0,0,0,0,0,0,0,0,0,0,0,0,0,0,0,0,0,0,0,0,0,0,0,0,0,0,0,0,0,0,0,0,2.3966,2.3965,0,2.3945,2.3945,2.3944,2.3897,2.3896,2.3895,2.3894,2.3874,2.3875,2.3875,0,0,0,0,0,0,0,0,0,0,0,0,0,2.3967,2.3967,2.3966,2.3965,2.3965,2.3945,2.3945,2.3944,2.3897,2.3896,2.3895,2.3894,2.3874,2.3875,2.3875,0,0,0,0,0,0,0,0,0,0,0,0,0,2.3958,2.3967,2.3966,2.3939,2.3937,2.3945,2.3945,2.3944,2.3898,2.3896,2.3895,2.3893,2.3874,2.3875,2.3875,2.3908,0,0,2.3877,2.3877,0,0,0,0,0,0,0,0,2.3959,2.3958,2.3943,2.3941,2.3938,2.3922,2.3938,2.3932,2.3898,2.3912,2.3894,2.3893,2.3892,2.3891,2.389,2.3907,2.3906,2.3877,2.3877,2.3878,2.3878,0,0,0,0,0,0,0,2.396,2.3959,2.3957,2.3943,2.394,2.3929,2.3926,2.3937,2.3911,2.3911,2.3908,2.3906,2.389,2.389,2.3889,2.3906,2.3877,2.3878,2.3878,2.3878,2.395,2.3951,0,0,0,0,0,0,2.3964,2.396,2.3958,2.3957,2.3945,2.393,2.3927,2.3929,2.391,2.3906,2.3907,2.3904,2.3889,2.3889,2.3888,2.3925,2.3878,2.3878,2.3879,2.3948,2.395,2.3952,0,0,0,0,0,0,2.3964,2.3964,2.3959,2.3957,2.3956,2.3932,2.3934,2.3929,2.3929,2.3907,2.3902,2.3911,2.3888,2.3887,2.3903,2.3924,2.3878,2.3879,2.3946,2.3949,2.3951,2.3999,0,0,0,0,0,0,2.3964,2.3964,2.3976,2.3958,2.3956,2.3974,2.3935,2.393,2.393,2.3925,2.391,2.3906,2.3887,2.3903,2.3904,2.3924,2.3879,2.3944,2.3947,2.395,2.3995,2.4003,2.4009,0,0,0,0,0,2.3964,2.3991,2.3977,2.3977,2.397,2.3975,2.3974,2.3951,2.3931,2.3943,2.393,2.3906,2.3922,2.3905,2.3906,2.3926,2.3943,2.3946,2.395,2.3992,2.4001,2.4009,0,0,0,0,0,0,2.4012,2.3988,2.3972,2.3993,2.3987,2.3967,2.3981,2.3961,2.396,2.3956,2.3928,2.3925,2.3945,2.3937,2.3919,2.3957,2.3929,2.3933,2.3961,2.3969,2.3975,2.3976,2.388,0,0,0,0,0,2.4025,2.403,2.4009,2.403,2.4027,2.4005,2.4006,2.399,2.3982,2.3979,2.3966,2.396,2.3963,2.3966,2.3968,2.3995,2.3991,2.4009,2.4016,2.4022,2.4025,2.4038,2.4046,2.3963,2.3963,2.3963,0,0,2.4051,2.4039,2.4044,2.4039,2.4032,2.4039,2.4003,2.4012,2.4016,2.398,2.3994,2.3985,2.3977,2.3998,2.4007,2.3992,2.4047,2.4026,2.4031,2.4031,2.4043,2.4051,2.4058,2.3965,2.3965,2.3965,0,0,2.4102,2.4094,2.411,2.4104,2.4093,2.4079,2.4083,2.4067,2.4059,2.4073,2.4046,2.4052,2.4058,2.4053,2.4052,2.4103,2.4082,2.4105,2.4139,2.4153,2.4159,2.4165,2.4182,2.4189,2.4109,2.4109,2.4109,0,2.4136,2.4145,2.4121,2.4131,2.413,2.4098,2.4114,2.411,2.4101,2.4101,2.4085,2.4093,2.4085,2.4104,2.4117,2.4117,2.4121,2.4105,2.416,2.4166,2.417,2.4187,2.4194,2.4111,2.4111,2.4111,2.4111,0,2.4187,2.4193,2.4208,2.4199,2.42,2.4214,2.4192,2.4197,2.418,2.4168,2.4183,2.4172,2.4171,2.4176,2.416,2.4193,2.4185,2.4165,2.4136,2.4181,2.4196,2.4202,2.4115,2.4114,2.4114,2.4113,0,0,2.4264,2.4244,2.425,2.4245,2.4233,2.4238,2.4251,2.425,2.4253,2.4249,2.4259,2.4266,2.4248,2.4246,2.423,2.4243,2.4283,2.4221,2.4221,2.4232,2.4319,2.4333,2.434,2.427,2.4271,2.4272,2.4319,0,2.4311,2.433,2.431,2.4334,2.4339,2.431,2.4322,2.4315,2.4305,2.4309,2.4297,2.4302,2.4278,2.4277,2.4288,2.4276,2.43,2.4273,2.4279,2.4279,2.4279,2.4348,2.4362,2.4407,2.4325,2.4326,2.4327,0,2.4368,2.4366,2.439,2.4376,2.4378,2.4388,2.4386,2.439,2.4383,2.4375,2.4374,2.4355,2.4367,2.434,2.4357,2.4339,2.434,2.4335,2.4336,2.4334,2.4304,2.4347,2.4421,2.4427,2.4336,2.4335,2.4335,0,2.442,2.4424,2.4439,2.4437,2.4421,2.4429,2.4424,2.4415,2.4416,2.4415,2.4415,2.4416,2.4416,2.4418,2.44,2.4382,2.4419,2.439,2.4412,2.4412,2.4418,2.4418,2.4492,2.4423,2.4423,2.4423,2.4423,0,2.4473,2.4489,2.4462,2.4471,2.4488,2.4466,2.4483,2.4475,2.4468,2.4475,2.4451,2.4459,2.4436,2.4441,2.4427,2.4443,2.4444,2.4437,2.4433,2.4438,2.4439,2.4437,2.4433,2.4425,2.4424,2.4424,2.4424,0,2.4534,2.4517,2.4531,2.4516,2.4512,2.4525,2.4513,2.4521,2.451,2.4519,2.452,2.4502,2.4507,2.449,2.4493,2.4484,2.4506,2.4498,2.4508,2.4505,2.4527,2.4524,2.4601,2.461,2.4537,2.4537,2.4538,0,2.4568,2.4579,2.4565,2.4568,2.4564,2.4569,2.457,2.4549,2.4551,2.4545,2.4554,2.4558,2.4559,2.4569,2.4556,2.4558,2.4549,2.4576,2.4549,2.4554,2.4548,2.4547,2.4547,2.4581,2.4582,2.4582,2.4583,0,2.4629,2.4621,2.4623,2.4622,2.4624,2.4623,2.462,2.4624,2.4602,2.4606,2.4611,2.4612,2.4615,2.4618,2.4618,2.4613,2.4594,2.4592,2.4597,2.4601,2.4606,2.4602,2.4522,2.459,2.4589,2.4589,2.4588,2.4588,2.4676,2.4685,2.4677,2.468,2.4676,2.4674,2.4681,2.4671,2.4674,2.4674,2.4663,2.467,2.4665,2.4662,2.4659,2.4665,2.4653,2.466,2.4661,2.4663,2.4666,2.4607,2.4665,2.4665,2.4665,2.4665,2.4665,0,2.4736,2.4729,2.4733,2.4729,2.4732,2.4715,2.4712,2.4716,2.4722,2.4718,2.472,2.4726,2.473,2.4719,2.4721,2.4728,2.472,2.4729,2.4728,2.4727,2.4678,2.4673,2.4736,2.4736,2.4736,2.4736,2.4736,2.4736,2.4767,2.478,2.4771,2.4783,2.4776,2.4783,2.4782,2.4781,2.4778,2.4785,2.4788,2.4781,2.4774,2.4776,2.4779,2.4776,2.4777,2.479,2.4783,2.4737,2.473,2.4723,2.4718,2.4791,2.4791,2.4832,2.4832,2.4832]}]]